{"data":{"norad_id":53226,"epoch":"2026-09-19T09:21:45.047808Z","epoch_age_seconds":168209,"freshness":"FRESH","line1":"1 53226U 22084AP  26262.39010472  .00002761  00000+0  87835-4 0  9998","line2":"2 53226  97.2835 317.2092 0001577  82.2639 277.8783 15.33441812228521","mean_motion":15.33441812,"eccentricity":0.0001577,"inclination_deg":97.2835,"raan_deg":317.2092,"arg_perigee_deg":82.2639,"mean_anomaly_deg":277.8783,"bstar":8.7835e-5,"rev_number":22852,"period_min":93.906399886271,"perigee_km":464.47340988027,"apogee_km":466.63190959896,"semimajor_km":6843.6896597396,"source":"CELESTRAK","updated_at":"2026-09-20T09:00:40.195501Z"}}